This is the latest recevied weather packets stored in our database for station/object N4MGC. If no packets are shown the sender has not sent any weather packets the latest 10 day(s).
| Time | Temp. | Humidity | Pressure | Rain* | Wind** | Luminosity | Snow |
|---|---|---|---|---|---|---|---|
| 1777774703 | 11.11° C | 84% | 1017.3 hPa | 0 mm | - | 0 W/m² | - |
| 1777774399 | 11.67° C | 83% | 1017.3 hPa | 0 mm | - | 0 W/m² | - |
| 1777774097 | 11.67° C | 82% | 1017.3 hPa | 0 mm | - | 0 W/m² | - |
| 1777773795 | 11.67° C | 80% | 1017.2 hPa | 0 mm | - | 0 W/m² | - |
| 1777773491 | 11.67° C | 80% | 1017.1 hPa | 0 mm | - | 0 W/m² | - |
| 1777773188 | 12.22° C | 79% | 1017.1 hPa | 0 mm | - | 0 W/m² | - |
| 1777772884 | 12.22° C | 78% | 1016.9 hPa | 0 mm | - | 0 W/m² | - |
| 1777772581 | 12.22° C | 76% | 1016.9 hPa | 0 mm | - | 0 W/m² | - |
| 1777772278 | 12.78° C | 76% | 1016.7 hPa | 0 mm | - | 0 W/m² | - |
| 1777771976 | 12.78° C | 75% | 1016.7 hPa | 0 mm | - | 0 W/m² | - |
| 1777771673 | 12.78° C | 73% | 1016.8 hPa | 0 mm | - | 0 W/m² | - |
| 1777771370 | 12.78° C | 72% | 1016.8 hPa | 0 mm | - | 0 W/m² | - |
| 1777771067 | 13.33° C | 71% | 1016.8 hPa | 0 mm | - | 0 W/m² | - |
| 1777770764 | 13.33° C | 71% | 1016.7 hPa | 0 mm | - | 0 W/m² | - |
| 1777770460 | 13.33° C | 69% | 1016.6 hPa | 0 mm | - | 0 W/m² | - |
| 1777770157 | 13.89° C | 67% | 1016.4 hPa | 0 mm | - | 0 W/m² | - |
| 1777769855 | 13.89° C | 67% | 1016.7 hPa | 0 mm | - | 0 W/m² | - |
| 1777769552 | 14.44° C | 65% | 1016.5 hPa | 0 mm | - | 0 W/m² | - |
| 1777769247 | 14.44° C | 63% | 1016.5 hPa | 0 mm | - | 0 W/m² | - |
| 1777768946 | 15° C | 61% | 1016.5 hPa | 0 mm | - | 0 W/m² | - |
| 1777768643 | 15.56° C | 60% | 1016.2 hPa | 0 mm | - | 0 W/m² | - |
| 1777768340 | 15.56° C | 59% | 1016.1 hPa | 0 mm | - | 2 W/m² | - |
| 1777768036 | 16.11° C | 57% | 1016 hPa | 0 mm | - | 4 W/m² | - |
| 1777767734 | 16.67° C | 54% | 1015.9 hPa | 0 mm | - | 6 W/m² | - |
| 1777767429 | 17.22° C | 50% | 1016 hPa | 0 mm | - | 9 W/m² | - |
* Rain latest hour (hover to see other rain measurements)
** Current wind speed in m/s (hover to see current wind gust speed)